YO4ISC-13 Weather Reports


time (UTC)temp
F
wind
direction
speed
knots
gust
knots
rain 1hr
in
rain 24hr
in
rain mn
in
humidity
%
barometer
mb
20260508083001 55 172 7.0 8.7 0.00 0.00 0.00 86 1019.0
20260508082002 56 160 8.7 12.2 0.00 0.00 0.00 85 1019.0
20260508081001 56 167 7.8 12.2 0.00 0.00 0.00 85 1019.0
20260508080002 56 166 7.8 10.4 0.00 0.00 0.00 86 1019.0
20260508075002 55 167 8.7 10.4 0.00 0.00 0.00 86 1019.0
20260508074001 56 159 7.8 11.3 0.00 0.00 0.00 85 1019.0
20260508073002 55 170 8.7 9.6 0.00 0.00 0.00 87 1019.0
20260508072001 55 177 9.6 9.6 0.00 0.00 0.00 87 1019.0
20260508071001 55 191 6.1 8.7 0.00 0.00 0.00 87 1019.0
20260508070002 55 192 7.0 7.8 0.00 0.00 0.00 88 1019.0
20260508065001 55 162 7.0 8.7 0.00 0.00 0.00 88 1019.0
20260508064002 54 160 5.2 6.1 0.00 0.00 0.00 89 1019.0
20260508063002 55 172 10.4 10.4 0.00 0.00 0.00 89 1019.0
20260508062001 55 167 7.0 9.6 0.00 0.00 0.00 89 1019.0
20260508061002 55 180 7.0 7.8 0.00 0.00 0.00 89 1019.0
20260508060002 54 192 5.2 6.1 0.00 0.00 0.00 91 1019.0
20260508055002 54 175 5.2 7.0 0.00 0.00 0.00 90 1019.0
20260508054002 54 159 7.0 7.8 0.00 0.00 0.00 90 1019.0
20260508053002 55 170 4.3 9.6 0.00 0.00 0.00 90 1019.0
20260508052002 55 176 4.3 6.1 0.00 0.00 0.00 90 1019.0
20260508051001 54 175 6.1 7.8 0.00 0.00 0.00 90 1019.0
20260508050001 54 175 4.3 5.2 0.00 0.00 0.00 91 1019.0
20260508044001 54 174 3.5 5.2 0.00 0.00 0.00 92 1019.0
20260508043002 54 177 8.7 9.6 0.00 0.00 0.00 92 1019.0
20260508042001 54 171 6.1 7.8 0.00 0.00 0.00 92 1019.0
20260508041002 54 174 7.8 9.6 0.00 0.00 0.00 93 1018.0
20260508040001 54 166 6.1 8.7 0.00 0.00 0.00 93 1019.0
20260508035002 54 165 7.8 8.7 0.00 0.00 0.00 94 1018.0
20260508034001 54 169 5.2 6.1 0.00 0.00 0.00 94 1019.0
20260508033001 54 177 5.2 5.2 0.00 0.00 0.00 94 1019.0
20260508032001 54 163 6.1 7.8 0.00 0.00 0.00 94 1018.0
20260508031001 53 161 4.3 5.2 0.00 0.00 0.00 94 1018.0
20260508030002 53 175 4.3 7.0 0.00 0.00 0.00 94 1018.0
20260508025001 53 161 5.2 6.1 0.00 0.00 0.00 93 1018.0
20260508024002 53 170 5.2 6.1 0.00 0.00 0.00 93 1018.0
20260508023001 53 182 4.3 4.3 0.00 0.00 0.00 93 1018.0
20260508022002 53 174 6.1 6.1 0.00 0.00 0.00 92 1018.0
20260508021001 53 177 6.1 7.0 0.00 0.00 0.00 92 1018.0
20260508020002 53 183 4.3 6.1 0.00 0.00 0.00 91 1018.0
20260508015001 53 178 3.5 6.1 0.00 0.00 0.00 91 1018.0
20260508014002 53 175 5.2 6.1 0.00 0.00 0.00 91 1018.0
20260508013001 53 177 3.5 4.3 0.00 0.00 0.00 91 1018.0
20260508012002 53 170 9.6 11.3 0.00 0.00 0.00 91 1018.0
20260508011001 53 172 5.2 5.2 0.00 0.00 0.00 92 1018.0
20260508010002 53 175 5.2 6.1 0.00 0.00 0.00 91 1018.0
20260508005001 53 173 3.5 6.1 0.00 0.00 0.00 91 1018.0
20260508004002 53 174 5.2 5.2 0.00 0.00 0.00 91 1018.0
20260508003001 53 172 3.5 4.3 0.00 0.00 0.00 91 1018.0
20260508002002 53 172 5.2 8.7 0.00 0.00 0.00 91 1018.0
20260508001001 53 162 7.0 7.8 0.00 0.00 0.00 92 1018.0
20260508000002 53 169 7.8 8.7 0.00 0.00 0.00 91 1018.0
20260507235001 53 170 4.3 5.2 0.00 0.00 0.00 91 1019.0
20260507234002 53 168 6.1 7.8 0.00 0.00 0.00 91 1019.0
20260507233001 53 165 5.2 7.8 0.00 0.00 0.00 91 1019.0
20260507232002 53 172 5.2 5.2 0.00 0.00 0.00 90 1019.0
20260507231001 53 175 4.3 5.2 0.00 0.00 0.00 89 1019.0
20260507230002 54 198 3.5 4.3 0.00 0.00 0.00 88 1019.0
20260507225001 54 181 5.2 5.2 0.00 0.00 0.00 88 1019.0
20260507224002 54 177 3.5 5.2 0.00 0.00 0.00 89 1019.0
20260507223001 54 182 5.2 6.1 0.00 0.00 0.00 88 1019.0
20260507222002 54 188 3.5 5.2 0.00 0.00 0.00 88 1019.0
20260507221001 54 175 6.1 7.8 0.00 0.00 0.00 89 1020.0
20260507220002 54 200 5.2 5.2 0.00 0.00 0.00 88 1020.0
20260507215001 54 170 6.1 7.8 0.00 0.00 0.00 88 1019.0
20260507214002 54 173 8.7 9.6 0.00 0.00 0.00 88 1019.0
20260507213001 54 186 11.3 12.2 0.00 0.00 0.00 88 1019.0
20260507212001 54 175 5.2 6.1 0.00 0.00 0.00 89 1019.0
20260507211002 54 179 3.5 5.2 0.00 0.00 0.00 88 1019.0
20260507210001 54 170 7.0 9.6 0.00 0.00 0.00 88 1019.0
20260507205002 54 170 8.7 8.7 0.00 0.00 0.00 88 1019.0
20260507204001 54 174 7.0 7.8 0.00 0.00 0.00 88 1019.0
20260507203002 54 174 6.1 9.6 0.00 0.00 0.00 87 1019.0
20260507202001 54 176 5.2 7.0 0.00 0.00 0.00 87 1019.0
20260507201002 54 180 5.2 6.1 0.00 0.00 0.00 88 1019.0
20260507200001 54 174 4.3 5.2 0.00 0.00 0.00 87 1019.0
20260507195002 54 182 4.3 7.0 0.00 0.00 0.00 88 1019.0
20260507194001 54 164 5.2 7.8 0.00 0.00 0.00 88 1020.0
20260507193002 54 173 8.7 9.6 0.00 0.00 0.00 87 1019.0
20260507192001 55 179 6.1 7.8 0.00 0.00 0.00 88 1020.0
20260507191002 55 173 6.1 7.0 0.00 0.00 0.00 87 1019.0
20260507190002 55 183 9.6 12.2 0.00 0.00 0.00 87 1020.0
20260507185002 55 194 4.3 7.0 0.00 0.00 0.00 88 1019.0
20260507184001 55 177 4.3 4.3 0.00 0.00 0.00 88 1019.0
20260507183002 55 174 7.8 9.6 0.00 0.00 0.00 88 1019.0
20260507182001 55 180 4.3 6.1 0.00 0.00 0.00 89 1019.0
20260507181001 55 183 10.4 12.2 0.00 0.00 0.00 88 1019.0
20260507180002 54 174 4.3 5.2 0.00 0.00 0.00 89 1019.0
20260507175001 54 172 10.4 10.4 0.00 0.00 0.00 89 1019.0
20260507174002 55 173 7.0 7.0 0.00 0.00 0.00 89 1019.0
20260507173002 55 161 6.1 8.7 0.00 0.00 0.00 89 1019.0
20260507172001 55 171 7.0 7.8 0.00 0.00 0.00 89 1019.0
20260507171002 54 169 7.8 10.4 0.00 0.00 0.00 89 1019.0
20260507170001 55 168 5.2 6.1 0.00 0.00 0.00 90 1019.0
20260507165001 55 178 7.8 9.6 0.00 0.00 0.00 89 1019.0
20260507164001 55 186 4.3 5.2 0.00 0.00 0.00 89 1019.0
20260507163001 55 168 9.6 10.4 0.00 0.00 0.00 89 1019.0
20260507162002 56 158 9.6 9.6 0.00 0.00 0.00 87 1019.0
20260507161001 55 171 6.1 8.7 0.00 0.00 0.00 87 1019.0
20260507160002 55 173 7.0 8.7 0.00 0.00 0.00 88 1019.0
20260507155001 56 171 5.2 7.0 0.00 0.00 0.00 86 1019.0
20260507154002 57 176 6.1 10.4 0.00 0.00 0.00 84 1019.0
20260507153001 57 176 9.6 11.3 0.00 0.00 0.00 84 1019.0
20260507152002 57 171 8.7 11.3 0.00 0.00 0.00 83 1019.0
20260507151001 56 172 4.3 7.8 0.00 0.00 0.00 84 1019.0
20260507150002 56 174 7.8 7.8 0.00 0.00 0.00 84 1019.0
20260507145001 56 167 9.6 10.4 0.00 0.00 0.00 83 1019.0
20260507144001 56 181 5.2 6.1 0.00 0.00 0.00 83 1020.0
20260507143002 57 182 6.1 8.7 0.00 0.00 0.00 80 1020.0
20260507142001 57 175 7.0 7.8 0.00 0.00 0.00 80 1020.0
20260507141002 57 183 8.7 12.2 0.00 0.00 0.00 79 1020.0
20260507140001 58 175 5.2 6.1 0.00 0.00 0.00 79 1020.0
20260507135002 57 163 7.8 10.4 0.00 0.00 0.00 80 1020.0
20260507134001 57 184 11.3 14.8 0.00 0.00 0.00 80 1020.0
20260507133002 57 164 11.3 13.9 0.00 0.00 0.00 80 1020.0
20260507132001 56 171 12.2 12.2 0.00 0.00 0.00 81 1020.0
20260507131002 58 159 7.0 12.2 0.00 0.00 0.00 80 1020.0
20260507130001 57 169 7.8 11.3 0.00 0.00 0.00 81 1020.0
20260507125002 58 167 7.8 12.2 0.00 0.00 0.00 80 1020.0
20260507124001 57 171 11.3 13.9 0.00 0.00 0.00 80 1020.0
20260507123002 58 173 13.9 15.6 0.00 0.00 0.00 79 1020.0
20260507122001 57 172 14.8 16.5 0.00 0.00 0.00 81 1020.0
20260507121001 58 169 9.6 11.3 0.00 0.00 0.00 78 1020.0
20260507120002 58 181 13.0 14.8 0.00 0.00 0.00 79 1020.0
20260507115002 58 167 13.0 13.9 0.00 0.00 0.00 78 1020.0
20260507114001 57 183 13.0 13.9 0.00 0.00 0.00 80 1021.0
20260507113002 58 181 13.0 13.9 0.00 0.00 0.00 80 1021.0
20260507112001 58 171 11.3 11.3 0.00 0.00 0.00 80 1021.0
20260507111001 58 175 5.2 11.3 0.00 0.00 0.00 79 1020.0
20260507110002 57 170 10.4 14.8 0.00 0.00 0.00 78 1020.0
20260507105001 58 168 8.7 14.8 0.00 0.00 0.00 77 1021.0
20260507104002 58 171 7.8 10.4 0.00 0.00 0.00 78 1021.0
20260507103002 57 174 11.3 13.0 0.00 0.00 0.00 79 1021.0
20260507102002 57 171 11.3 14.8 0.00 0.00 0.00 78 1021.0
20260507101001 57 167 14.8 16.5 0.00 0.00 0.00 78 1020.0
20260507100002 57 172 13.0 15.6 0.00 0.00 0.00 77 1020.0
20260507095001 57 172 13.0 14.8 0.00 0.00 0.00 78 1020.0
20260507094002 57 166 11.3 13.0 0.00 0.00 0.00 79 1021.0
20260507093002 57 167 7.8 10.4 0.00 0.00 0.00 78 1021.0
20260507092002 57 146 12.2 13.9 0.00 0.00 0.00 79 1021.0
20260507091001 56 159 10.4 14.8 0.00 0.00 0.00 78 1021.0
20260507090006 56 172 10.4 12.2 0.00 0.00 0.00 79 1021.0
20260507085001 56 168 10.4 12.2 0.00 0.00 0.00 79 1021.0
20260507084001 56 166 10.4 13.9 0.00 0.00 0.00 79 1021.0